Regional Weather Roundup
Issued by NWS

Home | Current Version | Previous Version | Graphics & Text | Print | Product List | Glossary On
Versions: 1 2 3 4 5 6 7 8 9 10 11 12 13 14 15 16 17 18 19 20 21 22 23 24 25 26 27 28 29 30 31 32 33 34 35 36 37 38 39 40 41 42 43 44 45 46 47 48 49 50
000
ASUS43 KDTX 241110
RWRMI
MICHIGAN HOURLY REGIONAL WEATHER ROUNDUP
NATIONAL WEATHER SERVICE DETROIT/PONTIAC MI
700 AM EDT MON JUL 24 2017

NOTE: "FAIR" INDICATES FEW OR NO CLOUDS BELOW 12,000 FEET WITH NO
SIGNIFICANT WEATHER AND/OR OBSTRUCTION TO VISIBILITY.

MIZ047>049-052>055-059>063-066>070-074>076-081>083-241200-
SOUTHEAST LOWER MICHIGAN

CITY           SKY/WX    TMP DP  RH WIND       PRES   REMARKS
ADRIAN         PTCLDY    64  59  83 N9        29.89R
ALMA           PTCLDY    59  55  87 NW9G20    29.93R
ANN ARBOR      CLOUDY    63  60  90 NW9G22    29.88R
BAD AXE        CLOUDY    60  59  96 N13G21    29.87R
CARO           CLOUDY    61  57  86 NW9       29.88R
DETROIT CITY   CLEAR     66  61  84 NW6       29.85R
DETROIT        MOCLDY    65  63  93 NW8       29.86R
FLINT          CLOUDY    63  57  81 NW12      29.89R
GROSSE ILE     PTCLDY    66  63  89 N6        29.85R
HILLSDALE      CLOUDY    63  59  88 N10       29.90R
HOWELL         CLOUDY    61  58  90 NW6       29.90R

CITY           SKY/WX    TMP DP  RH WIND       PRES   REMARKS
JACKSON        CLOUDY    63  58  83 N10       29.91R
LAMBERTVILLE   CLEAR     64  62  94 CALM      29.87R
LANSING        CLOUDY    62  57  83 N7        29.92R
LAPEER         CLOUDY    62  59  92 N7        29.88R
MASON          CLOUDY    62  58  88 NW6       29.91R
MONROE         PTCLDY    65  64  96 NW7       29.86R
MT. CLEMENS    CLOUDY    64  61  90 NW8       29.84R
PONTIAC        CLOUDY    64  60  87 NW10      29.86R
PORT HOPE        N/A     63  59  87 VRB5      29.84R
PORT HURON     CLOUDY    63  61  94 NW8       29.85R
TRI CITIES     MOCLDY    62  58  86 N13       29.92R
MIDLAND        CLOUDY    61  56  82 NW8       29.91S
TROY           CLOUDY    66  61  82 NW10      29.87R
SAGINAW HB     MOCLDY    59  55  88 NW13G18   29.90R
$$
MIZ043>046-050>051-056>058-064>065-071>073-077>080-241200-
SOUTHWEST LOWER MICHIGAN

CITY           SKY/WX    TMP DP  RH WIND       PRES   REMARKS
BATTLE CREEK   PTCLDY    62  61  96 N5        29.93R
BENTON HARBOR  MOCLDY    67  61  81 VRB3      29.94R
BIG RAPIDS     CLOUDY    60  54  79 N7        29.96R
COLDWATER      CLOUDY    64  64  99 N9        29.91R
FREMONT        CLOUDY    61  57  86 N7        29.96R
HOLLAND        MOCLDY    63  59  87 VRB6      29.95R
GRAND RAPIDS   MOCLDY    63  60  90 N8        29.93R
IONIA          CLOUDY    63  58  83 N6        29.92R
KALAMAZOO      PTCLDY    63  59  87 N8        29.94R
LUDINGTON      CLOUDY    60  57  87 CALM      29.99R
MARSHALL       PTCLDY    62  62  98 CALM      29.91R
MOUNT PLEASANT MOCLDY    61  54  77 NW3       29.93R
MUSKEGON       CLOUDY    65  59  81 N9        29.96R
SOUTH HAVEN    PTCLDY    64  62  94 NE5       29.94R
$$
MIZ016>042-241200-
NORTHERN LOWER MICHIGAN

CITY           SKY/WX    TMP DP  RH WIND       PRES   REMARKS
ALPENA         CLOUDY    58  58 100 N12       29.93R
BEAVER ISLAND  CLEAR     58  54  86 N6        30.03R
BELLAIRE       MOCLDY    59  54  82 CALM      29.99R
CADILLAC       CLOUDY    59  54  83 N7        29.98R
CHARLEVOIX     MOCLDY    60  52  75 N12G17    30.03R
FRANKFORT      CLEAR     62  56  83 NE5       30.00R
GAYLORD        CLOUDY    58  53  84 VRB6      29.98R
GRAYLING       CLOUDY    57  54  89 NW7       29.98R
HARBOR SPRINGS CLEAR     56  52  88 N3        29.99R
HOUGHTON LAKE  CLOUDY    58  55  90 N8        29.96R
MANISTEE       CLEAR     60  55  83 N3        29.99R
OSCODA         DRIZZLE   59  58  96 NW13G18   29.89R
PELLSTON       PTCLDY    57  52  83 N7        30.00R
ROGERS CITY    CLOUDY    60  55  82 N7        29.97R
TRAVERSE CITY  MOCLDY    63  54  72 N9G16     29.98R
$$
MIZ007>008-015-241200-
EASTERN UPPER MICHIGAN

CITY           SKY/WX    TMP DP  RH WIND       PRES   REMARKS
KINROSS        CLEAR     54  53  97 NW8       30.01R
MACKINAC ISLAN CLEAR     57  56  96 N8        30.00R
NEWBERRY       CLEAR     51  50  97 NW7       30.04R
S. S. MARIE    CLEAR     54  51  90 CALM      30.00R
MUNISING         N/A     57  56  96 N6        30.06R
$$
MIZ004>006-011>014-085-241200-
CENTRAL UPPER MICHIGAN

CITY           SKY/WX    TMP DP  RH WIND       PRES   REMARKS
MANISTIQUE     CLEAR     49  47  90 N8        30.04R
ESCANABA       CLEAR     51  50  96 NW5       30.06R
MENOMINEE      CLEAR     55  52  89 N7        30.06R
SAWYER-GWINN   CLEAR     43  43 100 CALM      30.08R
$$
MIZ001>003-009>011-084-241200-
WESTERN UPPER MICHIGAN

CITY           SKY/WX    TMP DP  RH WIND       PRES   REMARKS
IRON MOUNTAIN  CLEAR     49  46  90 N5        30.07R
HOUGHTON       FOG       51  49  92 NW7       30.08R VSB 1/2
COPPER HARBOR    N/A     51  48  89 W6        30.06R
IRONWOOD       FOG       54  53  97 CALM      30.10R VSB 1/4
$$

ABBREVIATIONS USED IN REMARKS
   TC - TEMPERATURE IN CELSIUS
  WCI - WIND CHILL INDEX
   HX - HEAT INDEX
  VSB - VISIBILITY





USA.gov is the U.S. government's official web portal to all federal, state and local government web resources and services.